Tracking 35331 objects as of 16-Sep-2026
HD Live streaming from Space Station
objects crossing your sky now

CHECKMATE 6

Track CHECKMATE 6 now!
10-day predictions


NORAD ID: 56165
Int'l Code: 2023-050D
Launch date: April 2, 2023
Source: United States (US)
Launch site: AIR FORCE WESTERN TEST RANGE (AFWTR)
Your satellite tracking list
Your tracking list is empty




NASA's NSSDC Master Catalog

Two Line Element Set (TLE):
1 56165U 23050D   26258.71030403  .00000069  00000-0  47745-4 0  9990
2 56165  81.0082 344.7066 0019664  62.0289 298.2856 13.88751790174659
Source of the keplerian elements: AFSPC